User: anonymous
Location: Wildcat Hills Observatory
(41.6350°N, 103.6812°W)
Time: 03:58:48
(UTC-06:00)
Language:

Cosmos 1634 Rocket - Orbit

View from above orbital plane
View from above orbital plane
View from above satellite
View from above satellite

Ground track
Ground track

The orbit data is extracted from the following two-line orbital elements,

1 15598U 85022B   14262.13382233  .00000050  00000-0  34984-4 0  7204
2 15598 082.9363 131.9032 0022739 034.6798 120.5977 13.76490696482613
Epoch (UTC): 19 September 2014 03:12:42
Eccentricity: 0.0022739
inclination: 82.9363°
perigee height: 959 km
apogee height: 993 km
right ascension of ascending node: 131.9032°
argument of perigee: 34.6798°
revolutions per day: 13.76490696
mean anomaly at epoch: 120.5977°
orbit number at epoch: 48261

The dashed part of the orbit path shows where the satellite is in the earth's shadow,  

DLR